GW2312 Weather Reports


time (UTC)temp
C
wind
direction
speed
KPH
gust
KPH
rain 1hr
cm
rain 24hr
cm
rain mn
cm
humidity
%
barometer
mb
20260506161534 10 132 3.2 8.0 0.00 0.05 0.03 95 1020.0
20260506160035 9 0 0.0 1.6 0.00 0.05 0.03 95 1020.2
20260506154533 9 132 0.0 3.2 0.00 0.05 0.03 95 1020.1
20260506153032 9 0 0.0 1.6 0.00 0.05 0.03 95 1019.9
20260506151533 8 132 0.0 1.6 0.00 0.05 0.03 95 1020.0
20260506150039 8 0 0.0 0.0 0.00 0.05 0.03 95 1019.8
20260506144534 8 0 0.0 4.8 0.00 0.05 0.03 95 1019.8
20260506143037 8 0 0.0 0.0 0.00 0.05 0.03 95 1019.8
20260506141540 8 0 0.0 1.6 0.00 0.05 0.03 95 1019.8
20260506140034 8 0 0.0 1.6 0.00 0.05 0.03 95 1019.5
20260506134530 8 0 0.0 1.6 0.00 0.05 0.03 95 1019.5
20260506133030 8 0 0.0 1.6 0.00 0.05 0.03 95 1019.4
20260506131533 8 0 0.0 1.6 0.00 0.05 0.03 95 1019.3
20260506130033 8 0 0.0 1.6 0.00 0.05 0.03 95 1019.2
20260506124534 8 0 0.0 0.0 0.00 0.08 0.03 95 1019.3
20260506123030 8 0 0.0 0.0 0.00 0.08 0.03 95 1019.1
20260506121530 8 0 0.0 0.0 0.00 0.08 0.03 95 1019.0
20260506120051 8 0 0.0 1.6 0.00 0.08 0.03 95 1018.9
20260506114534 8 132 0.0 1.6 0.03 0.08 0.03 95 1018.8
20260506113034 8 0 0.0 0.0 0.03 0.08 0.03 95 1018.7
20260506111531 8 0 0.0 1.6 0.03 0.08 0.03 95 1018.7
20260506110032 8 0 0.0 0.0 0.03 0.08 0.03 95 1018.6
20260506104539 8 0 0.0 0.0 0.00 0.05 0.00 95 1018.4
20260506103043 8 0 0.0 0.0 0.00 0.05 0.00 95 1018.3
20260506101532 8 0 0.0 0.0 0.00 0.05 0.00 95 1018.2
20260506100031 8 0 0.0 0.0 0.00 0.05 0.00 95 1018.2
20260506094534 8 0 0.0 0.0 0.00 0.05 0.00 95 1018.3
20260506093031 8 0 0.0 0.0 0.00 0.05 0.00 95 1018.1
20260506091530 8 0 0.0 0.0 0.00 0.05 0.00 95 1018.1
20260506090031 8 0 0.0 0.0 0.00 0.05 0.00 95 1018.2
20260506084608 8 0 0.0 1.6 0.00 0.05 0.00 95 1018.3
20260506083037 8 0 0.0 1.6 0.00 0.05 0.00 95 1018.3
20260506081540 8 0 0.0 1.6 0.00 0.05 0.00 95 1018.4
20260506073034 8 0 0.0 0.0 0.00 0.05 0.00 95 1018.0
20260506071535 8 0 0.0 0.0 0.00 0.05 0.00 95 1018.0
20260506061530 8 0 0.0 1.6 0.00 0.05 0.05 95 1017.5
20260506044538 8 132 0.0 4.8 0.00 0.05 0.05 95 1016.8
20260506043038 8 133 0.0 3.2 0.00 0.05 0.05 95 1016.7
20260506041533 8 133 0.0 3.2 0.00 0.05 0.05 95 1016.6
20260506040036 8 0 0.0 3.2 0.00 0.05 0.05 95 1016.4
20260506034533 8 133 1.6 4.8 0.00 0.05 0.05 95 1016.3
20260506033036 8 133 0.0 3.2 0.00 0.05 0.05 95 1016.1
20260506031540 8 134 0.0 3.2 0.00 0.05 0.05 95 1015.8
20260506030032 8 0 0.0 4.8 0.00 0.05 0.05 95 1015.8
20260506024537 8 133 0.0 1.6 0.00 0.05 0.05 95 1015.7
20260506023050 8 133 0.0 4.8 0.00 0.05 0.05 95 1015.5
20260506021552 8 0 0.0 4.8 0.00 0.05 0.05 95 1015.5
20260506020035 8 182 1.6 4.8 0.00 0.05 0.05 95 1015.3
20260506014534 8 0 0.0 3.2 0.00 0.05 0.05 94 1015.4
20260506013035 8 0 0.0 1.6 0.00 0.05 0.05 94 1015.5
20260506011531 8 182 0.0 3.2 0.00 0.05 0.05 94 1015.3
20260506010032 8 182 0.0 6.4 0.00 0.05 0.05 94 1015.1
20260506004534 8 182 1.6 3.2 0.00 0.05 0.05 94 1014.9
20260506003035 8 0 0.0 3.2 0.00 0.05 0.05 94 1014.9
20260506001536 8 0 0.0 1.6 0.00 0.05 0.05 94 1014.7
20260506000032 8 182 0.0 1.6 0.00 0.05 0.05 94 1014.7
20260505234532 8 0 0.0 1.6 0.03 0.05 0.05 94 1014.6
20260505233035 8 0 0.0 1.6 0.03 0.05 0.05 94 1014.6
20260505231546 8 0 0.0 1.6 0.03 0.05 0.05 94 1014.6
20260505230035 8 0 0.0 1.6 0.03 0.05 0.05 94 1014.7
20260505224535 8 0 0.0 1.6 0.00 0.03 0.03 94 1014.6
20260505223034 8 0 0.0 4.8 0.00 0.03 0.03 94 1014.7
20260505221534 8 0 0.0 3.2 0.00 0.03 0.03 94 1014.7
20260505220034 8 0 0.0 3.2 0.00 0.03 0.03 94 1014.7
20260505214548 8 0 0.0 3.2 0.00 0.03 0.03 94 1014.7
20260505213039 8 179 0.0 3.2 0.00 0.03 0.03 94 1014.7
20260505211535 8 0 0.0 3.2 0.00 0.03 0.03 94 1014.8
20260505210031 8 0 0.0 3.2 0.00 0.03 0.03 93 1014.7
20260505204531 8 0 0.0 3.2 0.00 0.03 0.03 93 1014.6
20260505203050 8 0 0.0 1.6 0.00 0.03 0.03 93 1014.6
20260505201540 8 0 0.0 3.2 0.00 0.03 0.03 93 1014.5
20260505200038 8 0 0.0 11.3 0.00 0.03 0.03 93 1014.6
20260505194533 8 208 0.0 4.8 0.00 0.03 0.03 93 1014.6
20260505193033 8 151 0.0 3.2 0.00 0.03 0.03 93 1014.5
20260505191533 8 0 0.0 3.2 0.00 0.03 0.03 94 1014.5
20260505190034 8 151 1.6 4.8 0.00 0.03 0.03 94 1014.4
20260505184536 8 0 0.0 4.8 0.00 0.03 0.03 94 1014.4
20260505183033 8 0 0.0 4.8 0.00 0.03 0.03 94 1014.4
20260505181540 7 0 0.0 3.2 0.00 0.03 0.03 94 1014.3
20260505180033 8 0 0.0 4.8 0.00 0.03 0.03 94 1014.2
20260505174540 8 0 1.6 4.8 0.00 0.03 0.03 94 1014.0
20260505173034 8 178 0.0 3.2 0.00 0.03 0.03 94 1013.9
20260505171535 7 178 0.0 3.2 0.00 0.03 0.03 94 1013.9
20260505170036 7 0 0.0 1.6 0.00 0.03 0.03 94 1013.8
20260505164533 7 178 0.0 3.2 0.00 0.03 0.03 94 1013.8
20260505163053 7 0 0.0 6.4 0.00 0.03 0.03 94 1013.7